OOEHY CYFB-CYYR

Flight info

Callsign OOEHY
Flight time N/A
Altitude 3000
Route TEFFO DCT LOPVI DCT ALSOP
Aircraft C172/L-SFG/C

Departure

Time 2026-04-18 09:00
Airport Iqaluit Airport (CYFB)

Arrival

Time N/A
Airport Goose Bay Airport (CYYR)
Time Latitude Longitude Altitude Speed Heading
2026-04-18 08:56 63.75745 -68.54591 43 ft 0 kts 313°
2026-04-18 08:56 63.75747 -68.54602 43 ft 3 kts 279°
2026-04-18 08:57 63.75685 -68.54667 43 ft 7 kts 166°
2026-04-18 08:57 63.75633 -68.54695 44 ft 8 kts 226°
2026-04-18 08:57 63.75590 -68.54791 46 ft 13 kts 225°
2026-04-18 08:58 63.75511 -68.54977 51 ft 14 kts 224°
2026-04-18 08:58 63.75458 -68.55102 54 ft 10 kts 233°
2026-04-18 08:58 63.75483 -68.55220 55 ft 13 kts 314°
2026-04-18 08:58 63.75675 -68.55644 53 ft 60 kts 316°
2026-04-18 08:59 63.75990 -68.56406 176 ft 67 kts 310°
2026-04-18 08:59 63.76326 -68.57139 287 ft 72 kts 333°
2026-04-18 08:59 63.76785 -68.57148 503 ft 60 kts 18°
2026-04-18 08:59 63.77068 -68.56502 645 ft 61 kts 46°
2026-04-18 09:00 63.77181 -68.55444 725 ft 76 kts 83°
2026-04-18 09:00 63.77001 -68.54297 852 ft 84 kts 117°
2026-04-18 09:00 63.76842 -68.53887 946 ft 83 kts 132°
2026-04-18 09:00 63.76370 -68.53324 1148 ft 80 kts 168°
2026-04-18 09:01 63.75839 -68.53091 1351 ft 79 kts 168°
2026-04-18 09:01 63.75307 -68.52745 1542 ft 80 kts 160°
2026-04-18 09:01 63.74796 -68.52257 1736 ft 80 kts 153°
2026-04-18 09:01 63.74300 -68.51669 1927 ft 81 kts 149°
2026-04-18 09:02 63.73817 -68.51022 2118 ft 81 kts 146°
2026-04-18 09:02 63.73348 -68.50337 2304 ft 81 kts 143°
2026-04-18 09:02 63.72880 -68.49613 2492 ft 81 kts 143°
2026-04-18 09:02 63.72425 -68.48895 2675 ft 81 kts 143°
2026-04-18 09:03 63.71966 -68.48154 2857 ft 81 kts 142°
2026-04-18 09:03 63.71511 -68.47407 3035 ft 81 kts 143°
2026-04-18 09:03 63.71058 -68.46657 3214 ft 81 kts 143°
2026-04-18 09:03 63.70611 -68.45923 3388 ft 80 kts 143°
2026-04-18 09:04 63.70163 -68.45178 3562 ft 80 kts 142°
2026-04-18 09:04 63.69716 -68.44434 3734 ft 79 kts 142°
2026-04-18 09:04 63.69271 -68.43685 3892 ft 80 kts 142°
2026-04-18 09:04 63.68820 -68.42911 4033 ft 81 kts 139°
2026-04-18 09:05 63.68368 -68.42133 4174 ft 82 kts 141°
2026-04-18 09:05 63.67918 -68.41352 4320 ft 81 kts 137°
2026-04-18 09:05 63.67468 -68.40579 4433 ft 81 kts 143°
2026-04-18 09:05 63.67019 -68.39815 4526 ft 83 kts 141°
2026-04-18 09:06 63.66560 -68.39033 4624 ft 84 kts 139°
2026-04-18 09:06 63.66091 -68.38258 4729 ft 84 kts 138°
2026-04-18 09:06 63.65614 -68.37476 4835 ft 87 kts 138°
2026-04-18 09:06 63.65124 -68.36665 4947 ft 89 kts 138°
2026-04-18 09:07 63.64633 -68.35850 5084 ft 88 kts 142°
2026-04-18 09:07 63.64129 -68.35030 5204 ft 90 kts 139°
2026-04-18 09:07 63.63623 -68.34206 5326 ft 90 kts 143°
2026-04-18 09:07 63.63409 -68.33851 5364 ft 92 kts 137°
2026-04-18 09:08 63.62983 -68.33148 5487 ft 89 kts 142°
2026-04-18 09:08 63.62474 -68.32310 5583 ft 93 kts 138°
2026-04-18 09:08 63.61948 -68.31438 5688 ft 94 kts 138°
2026-04-18 09:08 63.61421 -68.30563 5810 ft 94 kts 142°
2026-04-18 09:09 63.60893 -68.29696 5918 ft 95 kts 137°
2026-04-18 09:09 63.60358 -68.28812 6031 ft 96 kts 137°
2026-04-18 09:09 63.59816 -68.27911 6153 ft 96 kts 141°
2026-04-18 09:09 63.59278 -68.27007 6316 ft 98 kts 141°
2026-04-18 09:10 63.58728 -68.26082 6491 ft 97 kts 139°
2026-04-18 09:10 63.58181 -68.25185 6665 ft 98 kts 141°
2026-04-18 09:10 63.57628 -68.24277 6807 ft 100 kts 137°
2026-04-18 09:10 63.57060 -68.23336 6902 ft 101 kts 140°
2026-04-18 09:11 63.56495 -68.22399 6992 ft 102 kts 137°
2026-04-18 09:11 63.55928 -68.21455 7104 ft 101 kts 140°
2026-04-18 09:11 63.55350 -68.20507 7183 ft 103 kts 137°
2026-04-18 09:11 63.54776 -68.19559 7271 ft 104 kts 141°
2026-04-18 09:12 63.54192 -68.18595 7377 ft 103 kts 138°
2026-04-18 09:12 63.53616 -68.17641 7447 ft 105 kts 139°
2026-04-18 09:12 63.53029 -68.16684 7550 ft 104 kts 141°
2026-04-18 09:12 63.52443 -68.15717 7636 ft 104 kts 139°
2026-04-18 09:13 63.51865 -68.14768 7731 ft 103 kts 140°
2026-04-18 09:13 63.51281 -68.13809 7813 ft 103 kts 137°
2026-04-18 09:13 63.50699 -68.12848 7901 ft 103 kts 140°
2026-04-18 09:13 63.50125 -68.11900 7969 ft 104 kts 139°
2026-04-18 09:14 63.49541 -68.10939 8063 ft 103 kts 137°
2026-04-18 09:14 63.48960 -68.09989 8134 ft 104 kts 137°
2026-04-18 09:14 63.48769 -68.09671 8154 ft 104 kts 140°
2026-04-18 09:14 63.48180 -68.08704 8234 ft 104 kts 139°
2026-04-18 09:15 63.47589 -68.07731 8312 ft 104 kts 142°
2026-04-18 09:15 63.47001 -68.06767 8379 ft 105 kts 141°
2026-04-18 09:15 63.46421 -68.05815 8467 ft 104 kts 142°
2026-04-18 09:15 63.45834 -68.04858 8530 ft 105 kts 141°
2026-04-18 09:16 63.45247 -68.03896 8612 ft 105 kts 142°
2026-04-18 09:16 63.44656 -68.02927 8689 ft 104 kts 140°
2026-04-18 09:16 63.44067 -68.01955 8751 ft 105 kts 142°
2026-04-18 09:16 63.43479 -68.00980 8822 ft 105 kts 137°
2026-04-18 09:17 63.42908 -68.00049 8910 ft 103 kts 141°
2026-04-18 09:17 63.42322 -67.99088 8958 ft 105 kts 142°
2026-04-18 09:17 63.41726 -67.98102 8990 ft 110 kts 139°
2026-04-18 09:17 63.41099 -67.97083 9000 ft 115 kts 142°
2026-04-18 09:18 63.40423 -67.96008 8990 ft 123 kts 144°
2026-04-18 09:18 63.39711 -67.94870 8978 ft 130 kts 141°
2026-04-18 09:18 63.38961 -67.93669 8975 ft 135 kts 144°
2026-04-18 09:18 63.38190 -67.92436 8990 ft 138 kts 144°
2026-04-18 09:19 63.37396 -67.91168 9003 ft 140 kts 145°
2026-04-18 09:19 63.36601 -67.89895 9004 ft 142 kts 146°
2026-04-18 09:19 63.35787 -67.88599 8995 ft 144 kts 146°
2026-04-18 09:19 63.34967 -67.87293 8998 ft 143 kts 147°
2026-04-18 09:20 63.34160 -67.86005 8970 ft 145 kts 147°
2026-04-18 09:20 63.33349 -67.84702 8981 ft 144 kts 146°
2026-04-18 09:20 63.32540 -67.83399 8989 ft 143 kts 146°
2026-04-18 09:20 63.31740 -67.82108 8996 ft 142 kts 146°
2026-04-18 09:21 63.30945 -67.80827 8996 ft 142 kts 146°
2026-04-18 09:21 63.30146 -67.79537 8998 ft 142 kts 146°
2026-04-18 09:21 63.29985 -67.79275 8991 ft 143 kts 146°
2026-04-18 09:21 63.29180 -67.77975 8988 ft 143 kts 146°
2026-04-18 09:22 63.28384 -67.76688 8996 ft 143 kts 146°
2026-04-18 09:22 63.27575 -67.75388 9005 ft 143 kts 146°
2026-04-18 09:22 63.26780 -67.74107 9017 ft 142 kts 146°
2026-04-18 09:22 63.25974 -67.72812 9015 ft 143 kts 146°
2026-04-18 09:23 63.25168 -67.71513 9003 ft 144 kts 146°
2026-04-18 09:23 63.24372 -67.70232 9021 ft 142 kts 146°
2026-04-18 09:23 63.23570 -67.68941 9025 ft 142 kts 146°
2026-04-18 09:23 63.22761 -67.67641 9009 ft 143 kts 146°
2026-04-18 09:24 63.21963 -67.66359 9017 ft 142 kts 146°
2026-04-18 09:24 63.21154 -67.65062 9008 ft 143 kts 146°
2026-04-18 09:24 63.20348 -67.63769 9011 ft 143 kts 146°
2026-04-18 09:24 63.19549 -67.62489 9020 ft 142 kts 146°
2026-04-18 09:25 63.18749 -67.61207 9025 ft 142 kts 146°
2026-04-18 09:25 63.17945 -67.59920 9015 ft 143 kts 146°
2026-04-18 09:25 63.17141 -67.58630 9011 ft 143 kts 146°
2026-04-18 09:25 63.16334 -67.57341 9000 ft 144 kts 146°
2026-04-18 09:26 63.15525 -67.56051 9012 ft 143 kts 146°
2026-04-18 09:26 63.14728 -67.54781 9019 ft 142 kts 146°
2026-04-18 09:26 63.13919 -67.53493 9019 ft 142 kts 146°
2026-04-18 09:26 63.13119 -67.52215 9014 ft 142 kts 146°
2026-04-18 09:27 63.12310 -67.50926 9016 ft 142 kts 146°
2026-04-18 09:27 63.11500 -67.49639 9020 ft 142 kts 146°
2026-04-18 09:27 63.10699 -67.48364 9002 ft 143 kts 146°
2026-04-18 09:27 63.09890 -67.47079 9016 ft 142 kts 146°
2026-04-18 09:28 63.09083 -67.45797 8999 ft 143 kts 146°
2026-04-18 09:28 63.08285 -67.44530 9004 ft 143 kts 146°
2026-04-18 09:28 63.07475 -67.43245 8999 ft 143 kts 146°
2026-04-18 09:28 63.06676 -67.41979 9014 ft 142 kts 146°
2026-04-18 09:29 63.05867 -67.40699 9016 ft 142 kts 146°
2026-04-18 09:29 63.05058 -67.39416 9018 ft 142 kts 146°
2026-04-18 09:29 63.04259 -67.38152 9016 ft 142 kts 146°
2026-04-18 09:29 63.03448 -67.36871 9020 ft 142 kts 146°
2026-04-18 09:30 63.02645 -67.35603 9007 ft 143 kts 146°
2026-04-18 09:30 63.01832 -67.34317 9014 ft 143 kts 147°
2026-04-18 09:30 63.01023 -67.33040 9006 ft 143 kts 147°
2026-04-18 09:30 63.00220 -67.31773 9002 ft 143 kts 147°
2026-04-18 09:31 62.99408 -67.30494 9007 ft 142 kts 147°
2026-04-18 09:31 62.98610 -67.29239 8992 ft 142 kts 147°
2026-04-18 09:31 62.97799 -67.27964 8968 ft 143 kts 147°
2026-04-18 09:31 62.97002 -67.26710 8977 ft 142 kts 147°
2026-04-18 09:32 62.96193 -67.25440 8956 ft 143 kts 147°
2026-04-18 09:32 62.95387 -67.24173 8952 ft 142 kts 147°
2026-04-18 09:32 62.94865 -67.23356 8947 ft 142 kts 147°